,,,PA_Meas_PMT16A,,PR_Meas_QMR101_102,,RH_Meas_QMH101,,SR_Meas_QMS101,,TA_Meas_QMH101,,GenWind,,GenWind,
date,time,status,PA,status,PR,status,RH,status,SR,status,TA,status,DirAvg,status,SpdAvg,
2014-01-23, 00:00:04,VALID,1012.62,VALID,0,VALID,104,VALID,0,VALID,21.8629,VALID,337,VALID,0,
2014-01-23, 00:01:04,VALID,1012.6,VALID,0,VALID,104,VALID,0.112112,VALID,21.8434,VALID,337,VALID,0,
2014-01-23, 00:02:04,VALID,1012.58,VALID,0,VALID,104,VALID,0.112112,VALID,21.8223,VALID,337,VALID,0,
2014-01-23, 00:03:04,VALID,1012.58,VALID,0,VALID,104,VALID,0,VALID,21.8028,VALID,337,VALID,0,
2014-01-23, 00:04:04,VALID,1012.55,VALID,0,VALID,104,VALID,0.112112,VALID,21.8028,VALID,337,VALID,0,
2014-01-23, 00:05:04,VALID,1012.55,VALID,0,VALID,104,VALID,0,VALID,21.8028,VALID,337,VALID,0,
2014-01-23, 00:06:04,VALID,1012.53,VALID,0,VALID,104,VALID,0.112112,VALID,21.8223,VALID,337,VALID,0,
2014-01-23, 00:07:04,VALID,1012.5,VALID,0,VALID,104,VALID,0.112112,VALID,21.8028,VALID,337,VALID,0,
2014-01-23, 00:08:04,VALID,1012.52,VALID,0,VALID,104,VALID,0,VALID,21.8239,VALID,337,VALID,0,
2014-01-23, 00:09:04,VALID,1012.5,VALID,0,VALID,104,VALID,0.112112,VALID,21.8223,VALID,337,VALID,0,
2014-01-23, 00:10:04,VALID,1012.48,VALID,0,VALID,104,VALID,0,VALID,21.8028,VALID,337,VALID,0,
2014-01-23, 00:11:04,VALID,1012.48,VALID,0,VALID,104,VALID,0.112112,VALID,21.785,VALID,337,VALID,0.317578,
2014-01-23, 00:12:04,VALID,1012.47,VALID,0,VALID,104,VALID,0,VALID,21.7655,VALID,337,VALID,0.230078,
2014-01-23, 00:13:04,VALID,1012.47,VALID,0,VALID,104,VALID,0.112112,VALID,21.7655,VALID,337,VALID,0.118359,
2014-01-23, 00:14:04,VALID,1012.45,VALID,0,VALID,104,VALID,0.112112,VALID,21.7249,VALID,337,VALID,0.183203,
2014-01-23, 00:15:04,VALID,1012.46,VALID,0,VALID,104,VALID,0.112112,VALID,21.686,VALID,337,VALID,0.157813,
2014-01-23, 00:16:04,VALID,1012.45,VALID,0,VALID,104,VALID,0.112112,VALID,21.6665,VALID,337,VALID,0,
2014-01-23, 00:17:04,VALID,1012.49,VALID,0,VALID,104,VALID,0.112112,VALID,21.6665,VALID,337,VALID,0,
2014-01-23, 00:18:04,VALID,1012.51,VALID,0,VALID,104,VALID,0,VALID,21.6876,VALID,337,VALID,0,
2014-01-23, 00:19:04,VALID,1012.53,VALID,0,VALID,104,VALID,0.112112,VALID,21.6665,VALID,337,VALID,0.233203,
2014-01-23, 00:20:04,VALID,1012.54,VALID,0,VALID,104,VALID,0,VALID,21.746,VALID,337,VALID,0.0488281,
2014-01-23, 00:21:04,VALID,1012.54,VALID,0,VALID,104,VALID,0,VALID,21.7249,VALID,337,VALID,0.0160156,
2014-01-23, 00:22:04,VALID,1012.52,VALID,0,VALID,104,VALID,0,VALID,21.7266,VALID,337,VALID,0,
2014-01-23, 00:23:04,VALID,1012.5,VALID,0,VALID,104,VALID,0,VALID,21.7071,VALID,337,VALID,0.143359,
2014-01-23, 00:24:04,VALID,1012.49,VALID,0,VALID,104,VALID,0,VALID,21.6876,VALID,337,VALID,0,
2014-01-23, 00:25:04,VALID,1012.46,VALID,0,VALID,104,VALID,0,VALID,21.6876,VALID,337,VALID,0,
2014-01-23, 00:26:04,VALID,1012.47,VALID,0,VALID,104,VALID,0,VALID,21.6681,VALID,337,VALID,0,
2014-01-23, 00:27:04,VALID,1012.43,VALID,0,VALID,104,VALID,0,VALID,21.6487,VALID,337,VALID,0,
2014-01-23, 00:28:04,VALID,1012.43,VALID,0,VALID,104,VALID,0,VALID,21.6681,VALID,337,VALID,0,
2014-01-23, 00:29:04,VALID,1012.42,VALID,0,VALID,104,VALID,0.112112,VALID,21.6081,VALID,337,VALID,0,
2014-01-23, 00:30:04,VALID,1012.44,VALID,0,VALID,104,VALID,0,VALID,21.6292,VALID,337,VALID,0.259766,
2014-01-23, 00:31:04,VALID,1012.43,VALID,0,VALID,104,VALID,0,VALID,21.6487,VALID,337,VALID,0.249219,
2014-01-23, 00:32:04,VALID,1012.42,VALID,0,VALID,104,VALID,0,VALID,21.6681,VALID,337,VALID,0.314063,
2014-01-23, 00:33:04,VALID,1012.42,VALID,0,VALID,104,VALID,0,VALID,21.6681,VALID,337,VALID,0.0796875,
2014-01-23, 00:34:04,VALID,1012.38,VALID,0,VALID,104,VALID,0,VALID,21.6487,VALID,337,VALID,0.278516,
2014-01-23, 00:35:04,VALID,1012.37,VALID,0,VALID,104,VALID,0,VALID,21.6276,VALID,337,VALID,0.499219,
2014-01-23, 00:36:04,VALID,1012.36,VALID,0,VALID,104,VALID,0.112112,VALID,21.6081,VALID,337,VALID,0.436328,
2014-01-23, 00:37:04,VALID,1012.35,VALID,0,VALID,104,VALID,0,VALID,21.5691,VALID,337,VALID,0.444531,
2014-01-23, 00:38:04,VALID,1012.31,VALID,0,VALID,104,VALID,0,VALID,21.5708,VALID,337,VALID,0.678125,
2014-01-23, 00:39:04,VALID,1012.28,VALID,0,VALID,104,VALID,0,VALID,21.5708,VALID,337,VALID,0.492969,
2014-01-23, 00:40:04,VALID,1012.3,VALID,0,VALID,104,VALID,0,VALID,21.5513,VALID,337,VALID,0.249609,
2014-01-23, 00:41:04,VALID,1012.32,VALID,0,VALID,104,VALID,0,VALID,21.5724,VALID,337,VALID,0.186719,
2014-01-23, 00:42:04,VALID,1012.31,VALID,0,VALID,104,VALID,0,VALID,21.5107,VALID,337,VALID,0.232812,
2014-01-23, 00:43:04,VALID,1012.33,VALID,0,VALID,104,VALID,0,VALID,21.5513,VALID,337,VALID,0.0621094,
2014-01-23, 00:44:04,VALID,1012.34,VALID,0,VALID,104,VALID,0,VALID,21.5513,VALID,337,VALID,0,
2014-01-23, 00:45:04,VALID,1012.33,VALID,0,VALID,104,VALID,0,VALID,21.5302,VALID,337,VALID,0,
2014-01-23, 00:46:04,VALID,1012.33,VALID,0,VALID,104,VALID,0,VALID,21.5124,VALID,337,VALID,0,
2014-01-23, 00:47:04,VALID,1012.36,VALID,0,VALID,104,VALID,0,VALID,21.4929,VALID,337,VALID,0.373437,
2014-01-23, 00:48:04,VALID,1012.32,VALID,0,VALID,104,VALID,0,VALID,21.5497,VALID,337,VALID,0.296094,
2014-01-23, 00:49:04,VALID,1012.29,VALID,0,VALID,104,VALID,0,VALID,21.5902,VALID,337,VALID,0,
2014-01-23, 00:50:04,VALID,1012.31,VALID,0,VALID,104,VALID,0,VALID,21.5902,VALID,337,VALID,0,
2014-01-23, 00:51:04,VALID,1012.28,VALID,0,VALID,104,VALID,0,VALID,21.5902,VALID,337,VALID,0,
2014-01-23, 00:52:04,VALID,1012.29,VALID,0,VALID,104,VALID,0,VALID,21.5902,VALID,337,VALID,0,
2014-01-23, 00:53:04,VALID,1012.29,VALID,0,VALID,104,VALID,0,VALID,21.5708,VALID,337,VALID,0,
2014-01-23, 00:54:04,VALID,1012.3,VALID,0,VALID,104,VALID,0,VALID,21.5513,VALID,337,VALID,0,
2014-01-23, 00:55:04,VALID,1012.3,VALID,0,VALID,104,VALID,0.112112,VALID,21.5513,VALID,337,VALID,0,
2014-01-23, 00:56:04,VALID,1012.29,VALID,0,VALID,104,VALID,0,VALID,21.5124,VALID,337,VALID,0,
2014-01-23, 00:57:04,VALID,1012.25,VALID,0,VALID,104,VALID,0,VALID,21.4913,VALID,337,VALID,0,
2014-01-23, 00:58:04,VALID,1012.23,VALID,0,VALID,104,VALID,0,VALID,21.4929,VALID,337,VALID,0,
2014-01-23, 00:59:04,VALID,1012.25,VALID,0,VALID,104,VALID,0,VALID,21.5124,VALID,337,VALID,0,
2014-01-23, 01:00:05,VALID,1012.19,VALID,0,VALID,104,VALID,0,VALID,21.4913,VALID,337,VALID,0,
2014-01-23, 01:01:05,VALID,1012.19,VALID,0,VALID,104,VALID,0,VALID,21.5124,VALID,336,VALID,0.015625,
2014-01-23, 01:02:05,VALID,1012.16,VALID,0,VALID,104,VALID,0,VALID,21.5124,VALID,337,VALID,0.0378906,
2014-01-23, 01:03:05,VALID,1012.14,VALID,0,VALID,104,VALID,0,VALID,21.4523,VALID,337,VALID,0,
2014-01-23, 01:04:05,VALID,1012.16,VALID,0,VALID,104,VALID,0,VALID,21.3939,VALID,337,VALID,0,
2014-01-23, 01:05:05,VALID,1012.14,VALID,0,VALID,104,VALID,0,VALID,21.3955,VALID,337,VALID,0,
2014-01-23, 01:06:05,VALID,1012.09,VALID,0,VALID,104,VALID,0,VALID,21.376,VALID,337,VALID,0,
2014-01-23, 01:07:05,VALID,1012.11,VALID,0,VALID,104,VALID,0,VALID,21.355,VALID,337,VALID,0,
2014-01-23, 01:08:05,VALID,1012.08,VALID,0,VALID,104,VALID,0,VALID,21.3566,VALID,337,VALID,0,
2014-01-23, 01:09:05,VALID,1012.08,VALID,0,VALID,104,VALID,0,VALID,21.2965,VALID,337,VALID,0,
2014-01-23, 01:10:05,VALID,1012.07,VALID,0,VALID,104,VALID,0.112112,VALID,21.2771,VALID,337,VALID,0,
2014-01-23, 01:11:05,VALID,1012.07,VALID,0,VALID,104,VALID,0,VALID,21.2787,VALID,337,VALID,0,
2014-01-23, 01:12:05,VALID,1012.08,VALID,0,VALID,104,VALID,0,VALID,21.2982,VALID,337,VALID,0,
2014-01-23, 01:13:05,VALID,1012.06,VALID,0,VALID,104,VALID,0,VALID,21.2982,VALID,337,VALID,0,
2014-01-23, 01:14:05,VALID,1012.06,VALID,0,VALID,104,VALID,0,VALID,21.2771,VALID,337,VALID,0,
2014-01-23, 01:15:05,VALID,1012.02,VALID,0,VALID,104,VALID,0,VALID,21.2965,VALID,337,VALID,0,
2014-01-23, 01:16:05,VALID,1012.05,VALID,0,VALID,104,VALID,0.112112,VALID,21.2381,VALID,337,VALID,0.316016,
2014-01-23, 01:17:05,VALID,1012.03,VALID,0,VALID,104,VALID,0.112112,VALID,21.2592,VALID,337,VALID,0.185937,
2014-01-23, 01:18:05,VALID,1011.99,VALID,0,VALID,104,VALID,0,VALID,21.1992,VALID,337,VALID,0.06875,
2014-01-23, 01:19:05,VALID,1012.01,VALID,0,VALID,104,VALID,0,VALID,21.1813,VALID,337,VALID,0,
2014-01-23, 01:20:05,VALID,1011.94,VALID,0,VALID,104,VALID,0,VALID,21.1619,VALID,337,VALID,0,
2014-01-23, 01:21:05,VALID,1011.97,VALID,0,VALID,104,VALID,0,VALID,21.1424,VALID,337,VALID,0,
2014-01-23, 01:22:05,VALID,1011.95,VALID,0,VALID,104,VALID,0,VALID,21.144,VALID,337,VALID,0,
2014-01-23, 01:23:05,VALID,1011.97,VALID,0,VALID,104,VALID,0,VALID,21.1229,VALID,337,VALID,0,
2014-01-23, 01:24:05,VALID,1011.92,VALID,0,VALID,104,VALID,0,VALID,21.1424,VALID,337,VALID,0,
2014-01-23, 01:25:05,VALID,1011.91,VALID,0,VALID,104,VALID,0,VALID,21.1229,VALID,337,VALID,0,
2014-01-23, 01:26:05,VALID,1011.91,VALID,0,VALID,104,VALID,0,VALID,21.1229,VALID,337,VALID,0,
2014-01-23, 01:27:05,VALID,1011.89,VALID,0,VALID,104,VALID,0,VALID,21.084,VALID,337,VALID,0,
2014-01-23, 01:28:05,VALID,1011.86,VALID,0,VALID,104,VALID,0,VALID,21.0645,VALID,337,VALID,0.0242187,
2014-01-23, 01:29:05,VALID,1011.88,VALID,0,VALID,104,VALID,0,VALID,21.0434,VALID,337,VALID,0,
2014-01-23, 01:30:05,VALID,1011.87,VALID,0,VALID,104,VALID,0,VALID,21.0661,VALID,337,VALID,0,
2014-01-23, 01:31:05,VALID,1011.85,VALID,0,VALID,104,VALID,0,VALID,21.0645,VALID,337,VALID,0.075,
2014-01-23, 01:32:05,VALID,1011.85,VALID,0,VALID,104,VALID,0,VALID,21.0856,VALID,337,VALID,0,
2014-01-23, 01:33:05,VALID,1011.85,VALID,0,VALID,104,VALID,0,VALID,21.1035,VALID,337,VALID,0.254297,
2014-01-23, 01:34:05,VALID,1011.84,VALID,0,VALID,104,VALID,0,VALID,21.1229,VALID,337,VALID,0,
2014-01-23, 01:35:05,VALID,1011.83,VALID,0,VALID,104,VALID,0,VALID,21.0629,VALID,337,VALID,0,
2014-01-23, 01:36:05,VALID,1011.83,VALID,0,VALID,104,VALID,0,VALID,21.0645,VALID,337,VALID,0,
2014-01-23, 01:37:05,VALID,1011.83,VALID,0,VALID,104,VALID,0,VALID,21.0645,VALID,337,VALID,0.546094,
2014-01-23, 01:38:05,VALID,1011.8,VALID,0,VALID,104,VALID,0,VALID,21.084,VALID,337,VALID,0.0894531,
2014-01-23, 01:39:05,VALID,1011.81,VALID,0,VALID,104,VALID,0,VALID,21.1229,VALID,337,VALID,0.412109,
2014-01-23, 01:40:05,VALID,1011.81,VALID,0,VALID,104,VALID,0,VALID,21.1603,VALID,337,VALID,0.277344,
2014-01-23, 01:41:05,VALID,1011.8,VALID,0,VALID,104,VALID,0,VALID,21.2203,VALID,337,VALID,0.0183594,
2014-01-23, 01:42:05,VALID,1011.78,VALID,0,VALID,104,VALID,0,VALID,21.2397,VALID,337,VALID,0,
2014-01-23, 01:43:05,VALID,1011.8,VALID,0,VALID,104,VALID,0,VALID,21.2397,VALID,337,VALID,0,
2014-01-23, 01:44:05,VALID,1011.78,VALID,0,VALID,104,VALID,0.112112,VALID,21.2397,VALID,337,VALID,0,
2014-01-23, 01:45:05,VALID,1011.77,VALID,0,VALID,104,VALID,0,VALID,21.2397,VALID,337,VALID,0.805078,
2014-01-23, 01:46:05,VALID,1011.76,VALID,0,VALID,104,VALID,0,VALID,21.2787,VALID,337,VALID,0.439063,
2014-01-23, 01:47:05,VALID,1011.7,VALID,0,VALID,104,VALID,0,VALID,21.3176,VALID,337,VALID,0.335547,
2014-01-23, 01:48:05,VALID,1011.7,VALID,0,VALID,104,VALID,0,VALID,21.3566,VALID,337,VALID,0.148828,
2014-01-23, 01:49:05,VALID,1011.68,VALID,0,VALID,104,VALID,0,VALID,21.3582,VALID,337,VALID,0.137109,
2014-01-23, 01:50:05,VALID,1011.68,VALID,0,VALID,104,VALID,0,VALID,21.3582,VALID,337,VALID,0.0972656,
2014-01-23, 01:51:05,VALID,1011.69,VALID,0,VALID,104,VALID,0,VALID,21.3176,VALID,337,VALID,0,
2014-01-23, 01:52:05,VALID,1011.7,VALID,0,VALID,104,VALID,0,VALID,21.2982,VALID,337,VALID,0,
2014-01-23, 01:53:05,VALID,1011.72,VALID,0,VALID,104,VALID,0,VALID,21.2982,VALID,337,VALID,0,
2014-01-23, 01:54:05,VALID,1011.72,VALID,0,VALID,104,VALID,0,VALID,21.2787,VALID,337,VALID,0,
2014-01-23, 01:55:05,VALID,1011.71,VALID,0,VALID,104,VALID,0,VALID,21.2787,VALID,337,VALID,0,
2014-01-23, 01:56:05,VALID,1011.74,VALID,0,VALID,104,VALID,0,VALID,21.2787,VALID,337,VALID,0,
2014-01-23, 01:57:05,VALID,1011.75,VALID,0,VALID,104,VALID,0,VALID,21.2982,VALID,337,VALID,0,
2014-01-23, 01:58:05,VALID,1011.78,VALID,0,VALID,104,VALID,0,VALID,21.2982,VALID,337,VALID,0.00078125,
2014-01-23, 01:59:05,VALID,1011.78,VALID,0,VALID,104,VALID,0,VALID,21.2982,VALID,336,VALID,0,
2014-01-23, 02:00:05,VALID,1011.77,VALID,0,VALID,104,VALID,0,VALID,21.3371,VALID,336,VALID,0.0539063,
2014-01-23, 02:01:05,VALID,1011.8,VALID,0,VALID,104,VALID,0,VALID,21.376,VALID,337,VALID,0.0207031,
2014-01-23, 02:02:05,VALID,1011.82,VALID,0,VALID,104,VALID,0,VALID,21.3744,VALID,337,VALID,0.142188,
2014-01-23, 02:03:05,VALID,1011.82,VALID,0,VALID,104,VALID,0,VALID,21.3955,VALID,337,VALID,0.0472656,
2014-01-23, 02:04:05,VALID,1011.83,VALID,0,VALID,104,VALID,0,VALID,21.4556,VALID,337,VALID,0.0078125,
2014-01-23, 02:05:05,VALID,1011.84,VALID,0,VALID,104,VALID,0.112112,VALID,21.4539,VALID,337,VALID,0.0078125,
2014-01-23, 02:06:05,VALID,1011.88,VALID,0,VALID,104,VALID,0,VALID,21.4523,VALID,337,VALID,0.0964844,
2014-01-23, 02:07:05,VALID,1011.85,VALID,0,VALID,104,VALID,0.112112,VALID,21.4734,VALID,337,VALID,0.171094,
2014-01-23, 02:08:05,VALID,1011.83,VALID,0,VALID,104,VALID,0,VALID,21.4945,VALID,337,VALID,0.0664063,
2014-01-23, 02:09:05,VALID,1011.81,VALID,0,VALID,104,VALID,0,VALID,21.4929,VALID,337,VALID,0.0183594,
2014-01-23, 02:10:05,VALID,1011.8,VALID,0,VALID,104,VALID,0,VALID,21.5124,VALID,337,VALID,0.179297,
2014-01-23, 02:11:05,VALID,1011.81,VALID,0,VALID,104,VALID,0,VALID,21.4718,VALID,337,VALID,0,
2014-01-23, 02:12:05,VALID,1011.81,VALID,0,VALID,104,VALID,0,VALID,21.4929,VALID,337,VALID,0.0402344,
2014-01-23, 02:13:05,VALID,1011.81,VALID,0,VALID,104,VALID,0,VALID,21.4734,VALID,337,VALID,0,
2014-01-23, 02:14:05,VALID,1011.79,VALID,0,VALID,104,VALID,0.112112,VALID,21.4734,VALID,337,VALID,0,
2014-01-23, 02:15:05,VALID,1011.8,VALID,0,VALID,104,VALID,0.112112,VALID,21.4328,VALID,337,VALID,0.00195313,
2014-01-23, 02:16:05,VALID,1011.77,VALID,0,VALID,104,VALID,0,VALID,21.4345,VALID,337,VALID,0.298047,
2014-01-23, 02:17:05,VALID,1011.79,VALID,0,VALID,104,VALID,0,VALID,21.376,VALID,337,VALID,0.288281,
2014-01-23, 02:18:05,VALID,1011.78,VALID,0,VALID,104,VALID,0,VALID,21.3355,VALID,337,VALID,0.0675781,
2014-01-23, 02:19:05,VALID,1011.83,VALID,0,VALID,104,VALID,0,VALID,21.3176,VALID,337,VALID,0,
2014-01-23, 02:20:05,VALID,1011.78,VALID,0,VALID,104,VALID,0,VALID,21.2982,VALID,337,VALID,0,
2014-01-23, 02:21:05,VALID,1011.8,VALID,0,VALID,104,VALID,0,VALID,21.2787,VALID,337,VALID,0,
2014-01-23, 02:22:05,VALID,1011.77,VALID,0,VALID,104,VALID,0,VALID,21.2787,VALID,337,VALID,0,
2014-01-23, 02:23:05,VALID,1011.76,VALID,0,VALID,104,VALID,0,VALID,21.2592,VALID,337,VALID,0.283984,
2014-01-23, 02:24:05,VALID,1011.73,VALID,0,VALID,104,VALID,0,VALID,21.2187,VALID,337,VALID,0.157422,
2014-01-23, 02:25:05,VALID,1011.72,VALID,0,VALID,104,VALID,0,VALID,21.2203,VALID,337,VALID,0.359375,
2014-01-23, 02:26:05,VALID,1011.73,VALID,0,VALID,104,VALID,0,VALID,21.2203,VALID,337,VALID,0.167578,
2014-01-23, 02:27:05,VALID,1011.72,VALID,0,VALID,104,VALID,0.112112,VALID,21.1992,VALID,337,VALID,0.130078,
2014-01-23, 02:28:05,VALID,1011.7,VALID,0,VALID,104,VALID,0,VALID,21.2008,VALID,337,VALID,0.176563,
2014-01-23, 02:29:05,VALID,1011.71,VALID,0,VALID,104,VALID,0,VALID,21.1603,VALID,337,VALID,0.128906,
2014-01-23, 02:30:05,VALID,1011.67,VALID,0,VALID,104,VALID,0,VALID,21.1424,VALID,337,VALID,0.227734,
2014-01-23, 02:31:05,VALID,1011.69,VALID,0,VALID,104,VALID,0,VALID,21.1424,VALID,337,VALID,0.316016,
2014-01-23, 02:32:05,VALID,1011.7,VALID,0,VALID,104,VALID,0,VALID,21.1019,VALID,337,VALID,0.078125,
2014-01-23, 02:33:05,VALID,1011.7,VALID,0,VALID,104,VALID,0,VALID,21.1019,VALID,337,VALID,0,
2014-01-23, 02:34:05,VALID,1011.68,VALID,0,VALID,104,VALID,0.112112,VALID,21.1424,VALID,337,VALID,0,
2014-01-23, 02:35:05,VALID,1011.7,VALID,0,VALID,104,VALID,0,VALID,21.1408,VALID,337,VALID,0,
2014-01-23, 02:36:05,VALID,1011.68,VALID,0,VALID,104,VALID,0,VALID,21.1424,VALID,337,VALID,0,
2014-01-23, 02:37:05,VALID,1011.7,VALID,0,VALID,104,VALID,0,VALID,21.1035,VALID,337,VALID,0,
2014-01-23, 02:38:05,VALID,1011.71,VALID,0,VALID,104,VALID,0,VALID,21.045,VALID,337,VALID,0.1875,
2014-01-23, 02:39:05,VALID,1011.7,VALID,0,VALID,104,VALID,0,VALID,21.0061,VALID,337,VALID,0.151562,
2014-01-23, 02:40:05,VALID,1011.67,VALID,0,VALID,104,VALID,0,VALID,20.9656,VALID,337,VALID,0,
2014-01-23, 02:41:05,VALID,1011.68,VALID,0,VALID,104,VALID,0,VALID,20.9461,VALID,337,VALID,0,
2014-01-23, 02:42:05,VALID,1011.67,VALID,0,VALID,104,VALID,0,VALID,20.9282,VALID,337,VALID,0,
2014-01-23, 02:43:05,VALID,1011.66,VALID,0,VALID,104,VALID,0,VALID,20.9088,VALID,337,VALID,0,
2014-01-23, 02:44:05,VALID,1011.66,VALID,0,VALID,104,VALID,0,VALID,20.8893,VALID,337,VALID,0,
2014-01-23, 02:45:05,VALID,1011.64,VALID,0,VALID,104,VALID,0.112112,VALID,20.8698,VALID,337,VALID,0,
2014-01-23, 02:46:05,VALID,1011.66,VALID,0,VALID,104,VALID,0,VALID,20.8293,VALID,337,VALID,0,
2014-01-23, 02:47:05,VALID,1011.69,VALID,0,VALID,104,VALID,0,VALID,20.8309,VALID,337,VALID,0,
2014-01-23, 02:48:05,VALID,1011.69,VALID,0,VALID,104,VALID,0,VALID,20.8309,VALID,337,VALID,0,
2014-01-23, 02:49:05,VALID,1011.72,VALID,0,VALID,104,VALID,0,VALID,20.8309,VALID,337,VALID,0,
2014-01-23, 02:50:05,VALID,1011.73,VALID,0,VALID,104,VALID,0,VALID,20.8293,VALID,337,VALID,0,
2014-01-23, 02:51:05,VALID,1011.74,VALID,0,VALID,104,VALID,0,VALID,20.8503,VALID,337,VALID,0,
2014-01-23, 02:52:05,VALID,1011.75,VALID,0,VALID,104,VALID,0,VALID,20.8503,VALID,337,VALID,0,
2014-01-23, 02:53:05,VALID,1011.76,VALID,0,VALID,104,VALID,0,VALID,20.8309,VALID,337,VALID,0,
2014-01-23, 02:54:05,VALID,1011.8,VALID,0,VALID,104,VALID,0,VALID,20.8114,VALID,337,VALID,0,
2014-01-23, 02:55:05,VALID,1011.78,VALID,0,VALID,104,VALID,0,VALID,20.8098,VALID,337,VALID,0.315625,
2014-01-23, 02:56:05,VALID,1011.76,VALID,0,VALID,104,VALID,0,VALID,20.8309,VALID,337,VALID,0,
2014-01-23, 02:57:05,VALID,1011.77,VALID,0,VALID,104,VALID,0,VALID,20.7904,VALID,337,VALID,0,
2014-01-23, 02:58:05,VALID,1011.72,VALID,0,VALID,104,VALID,0,VALID,20.7919,VALID,337,VALID,0.157813,
2014-01-23, 02:59:05,VALID,1011.71,VALID,0,VALID,104,VALID,0.112112,VALID,20.732,VALID,337,VALID,0.191406,
2014-01-23, 03:00:05,VALID,1011.68,VALID,0,VALID,104,VALID,0,VALID,20.7725,VALID,337,VALID,0,
2014-01-23, 03:01:05,VALID,1011.68,VALID,0,VALID,104,VALID,0,VALID,20.753,VALID,337,VALID,0,
2014-01-23, 03:02:05,VALID,1011.66,VALID,0,VALID,104,VALID,0,VALID,20.7335,VALID,337,VALID,0,
2014-01-23, 03:03:05,VALID,1011.67,VALID,0,VALID,104,VALID,0,VALID,20.7141,VALID,337,VALID,0,
2014-01-23, 03:04:05,VALID,1011.65,VALID,0,VALID,104,VALID,0,VALID,20.6736,VALID,337,VALID,0,
2014-01-23, 03:05:05,VALID,1011.64,VALID,0,VALID,104,VALID,0,VALID,20.6962,VALID,337,VALID,0,
2014-01-23, 03:06:05,VALID,1011.6,VALID,0,VALID,104,VALID,0,VALID,20.6946,VALID,337,VALID,0,
2014-01-23, 03:07:05,VALID,1011.6,VALID,0,VALID,104,VALID,0,VALID,20.6946,VALID,337,VALID,0,
2014-01-23, 03:08:05,VALID,1011.6,VALID,0,VALID,104,VALID,0,VALID,20.7351,VALID,337,VALID,0,
2014-01-23, 03:09:05,VALID,1011.59,VALID,0,VALID,104,VALID,0,VALID,20.7141,VALID,337,VALID,0,
2014-01-23, 03:10:05,VALID,1011.59,VALID,0,VALID,104,VALID,0,VALID,20.693,VALID,337,VALID,0,
2014-01-23, 03:11:05,VALID,1011.58,VALID,0,VALID,104,VALID,0,VALID,20.693,VALID,337,VALID,0,
2014-01-23, 03:12:05,VALID,1011.6,VALID,0,VALID,104,VALID,0,VALID,20.6946,VALID,337,VALID,0,
2014-01-23, 03:13:05,VALID,1011.62,VALID,0,VALID,104,VALID,0.112112,VALID,20.6946,VALID,337,VALID,0.144922,
2014-01-23, 03:14:05,VALID,1011.6,VALID,0,VALID,104,VALID,0,VALID,20.6946,VALID,337,VALID,0.262109,
2014-01-23, 03:15:05,VALID,1011.63,VALID,0,VALID,104,VALID,0,VALID,20.7141,VALID,337,VALID,0.173047,
2014-01-23, 03:16:05,VALID,1011.62,VALID,0,VALID,104,VALID,0,VALID,20.7141,VALID,337,VALID,0.145703,
2014-01-23, 03:17:05,VALID,1011.61,VALID,0,VALID,104,VALID,0,VALID,20.7335,VALID,337,VALID,0.261328,
2014-01-23, 03:18:05,VALID,1011.56,VALID,0,VALID,104,VALID,0,VALID,20.732,VALID,337,VALID,0.00195313,
2014-01-23, 03:19:05,VALID,1011.58,VALID,0,VALID,104,VALID,0,VALID,20.693,VALID,337,VALID,0.250781,
2014-01-23, 03:20:05,VALID,1011.58,VALID,0,VALID,104,VALID,0,VALID,20.6736,VALID,337,VALID,0.208203,
2014-01-23, 03:21:05,VALID,1011.56,VALID,0,VALID,104,VALID,0,VALID,20.6541,VALID,337,VALID,0.198437,
2014-01-23, 03:22:05,VALID,1011.54,VALID,0,VALID,104,VALID,0,VALID,20.6152,VALID,337,VALID,0.316406,
2014-01-23, 03:23:05,VALID,1011.56,VALID,0,VALID,104,VALID,0,VALID,20.5957,VALID,337,VALID,0.244141,
2014-01-23, 03:24:05,VALID,1011.55,VALID,0,VALID,104,VALID,0,VALID,20.5973,VALID,337,VALID,0.266406,
2014-01-23, 03:25:05,VALID,1011.53,VALID,0,VALID,104,VALID,0,VALID,20.5762,VALID,337,VALID,0.0105469,
2014-01-23, 03:26:05,VALID,1011.5,VALID,0,VALID,104,VALID,0,VALID,20.5373,VALID,337,VALID,0,
2014-01-23, 03:27:05,VALID,1011.52,VALID,0,VALID,104,VALID,0.112112,VALID,20.5583,VALID,337,VALID,0,
2014-01-23, 03:28:05,VALID,1011.5,VALID,0,VALID,104,VALID,0,VALID,20.5178,VALID,337,VALID,0,
2014-01-23, 03:29:05,VALID,1011.47,VALID,0,VALID,104,VALID,0.112112,VALID,20.5194,VALID,337,VALID,0,
2014-01-23, 03:30:05,VALID,1011.48,VALID,0,VALID,104,VALID,0,VALID,20.4805,VALID,337,VALID,0,
2014-01-23, 03:31:05,VALID,1011.48,VALID,0,VALID,104,VALID,0,VALID,20.5209,VALID,337,VALID,0,
2014-01-23, 03:32:05,VALID,1011.44,VALID,0,VALID,104,VALID,0,VALID,20.4999,VALID,337,VALID,0,
2014-01-23, 03:33:05,VALID,1011.47,VALID,0,VALID,104,VALID,0,VALID,20.4594,VALID,337,VALID,0,
2014-01-23, 03:34:05,VALID,1011.45,VALID,0,VALID,104,VALID,0,VALID,20.4594,VALID,337,VALID,0,
2014-01-23, 03:35:05,VALID,1011.44,VALID,0,VALID,104,VALID,0,VALID,20.461,VALID,337,VALID,0,
2014-01-23, 03:36:05,VALID,1011.45,VALID,0,VALID,104,VALID,0,VALID,20.4594,VALID,337,VALID,0,
2014-01-23, 03:37:05,VALID,1011.46,VALID,0,VALID,104,VALID,0,VALID,20.4415,VALID,337,VALID,0,
2014-01-23, 03:38:05,VALID,1011.5,VALID,0,VALID,104,VALID,0,VALID,20.4415,VALID,337,VALID,0,
2014-01-23, 03:39:05,VALID,1011.47,VALID,0,VALID,104,VALID,0,VALID,20.4205,VALID,337,VALID,0,
2014-01-23, 03:40:05,VALID,1011.46,VALID,0,VALID,104,VALID,0,VALID,20.4221,VALID,337,VALID,0,
2014-01-23, 03:41:05,VALID,1011.44,VALID,0,VALID,104,VALID,0,VALID,20.4236,VALID,337,VALID,0,
2014-01-23, 03:42:05,VALID,1011.48,VALID,0,VALID,104,VALID,0,VALID,20.4236,VALID,337,VALID,0,
2014-01-23, 03:43:05,VALID,1011.47,VALID,0,VALID,104,VALID,0,VALID,20.3816,VALID,337,VALID,0,
2014-01-23, 03:44:04,VALID,1011.48,VALID,0,VALID,104,VALID,0.112112,VALID,20.3621,VALID,337,VALID,0,
2014-01-23, 03:45:04,VALID,1011.47,VALID,0,VALID,104,VALID,0,VALID,20.3427,VALID,337,VALID,0,
2014-01-23, 03:46:04,VALID,1011.45,VALID,0,VALID,104,VALID,0.112112,VALID,20.3637,VALID,337,VALID,0,
2014-01-23, 03:47:04,VALID,1011.44,VALID,0,VALID,104,VALID,0.112112,VALID,20.3637,VALID,337,VALID,0,
2014-01-23, 03:48:04,VALID,1011.43,VALID,0,VALID,104,VALID,0,VALID,20.3831,VALID,337,VALID,0,
2014-01-23, 03:49:04,VALID,1011.4,VALID,0,VALID,104,VALID,0,VALID,20.3831,VALID,337,VALID,0,
2014-01-23, 03:50:04,VALID,1011.42,VALID,0,VALID,104,VALID,0.112112,VALID,20.3621,VALID,337,VALID,0,
2014-01-23, 03:51:04,VALID,1011.42,VALID,0,VALID,104,VALID,0,VALID,20.4026,VALID,337,VALID,0,
2014-01-23, 03:52:04,VALID,1011.4,VALID,0,VALID,104,VALID,0.112112,VALID,20.3831,VALID,337,VALID,0,
2014-01-23, 03:53:04,VALID,1011.4,VALID,0,VALID,104,VALID,0,VALID,20.3816,VALID,337,VALID,0,
2014-01-23, 03:54:04,VALID,1011.36,VALID,0,VALID,104,VALID,0,VALID,20.3816,VALID,337,VALID,0,
2014-01-23, 03:55:04,VALID,1011.35,VALID,0,VALID,104,VALID,0,VALID,20.4026,VALID,337,VALID,0,
2014-01-23, 03:56:04,VALID,1011.35,VALID,0,VALID,104,VALID,0,VALID,20.3831,VALID,337,VALID,0,
2014-01-23, 03:57:04,VALID,1011.38,VALID,0,VALID,104,VALID,0,VALID,20.3831,VALID,337,VALID,0,
2014-01-23, 03:58:04,VALID,1011.38,VALID,0,VALID,104,VALID,0,VALID,20.3637,VALID,337,VALID,0,
2014-01-23, 03:59:04,VALID,1011.38,VALID,0,VALID,104,VALID,0.112112,VALID,20.3637,VALID,337,VALID,0,
2014-01-23, 04:00:04,VALID,1011.35,VALID,0,VALID,104,VALID,0.112112,VALID,20.3427,VALID,337,VALID,0,